Regional Weather Roundup
Issued by NWS

Home | Current Version | Previous Version | Text Only | Print | Product List | Glossary Off
Versions: 1 2 3 4 5 6 7 8 9 10 11 12 13 14 15 16 17 18 19 20 21 22 23 24 25 26 27 28 29 30 31 32 33 34 35 36 37 38 39 40 41 42 43 44 45 46 47 48 49 50

000
ASUS45 KBOI 020010
RWRID
WEATHER ROUNDUP FOR IDAHO
NATIONAL WEATHER SERVICE BOISE ID
600 PM MDT MON SEP 01 2014

NOTE: "FAIR" INDICATES FEW OR NO CLOUDS BELOW 12000 FEET
WITH NO SIGNIFICANT WEATHER AND/OR OBSTRUCTIONS TO VISIBILITY

IDZ012-014-020100-
SOUTHWEST IDAHO


CITY           SKY/WX    TMP DP  RH WIND       PRES   REMARKS
BOISE          SUNNY     76  37  24 N8        30.01F
CALDWELL       SUNNY     77  39  25 N8        30.02F
MOUNTAIN HOME  SUNNY     78  35  20 NW15      30.00F
$$

IDZ016-017-020100-
SOUTHCENTRAL IDAHO


CITY           SKY/WX    TMP DP  RH WIND       PRES   REMARKS
BURLEY         SUNNY     72  40  31 W8        30.04F
JEROME         SUNNY     73  36  25 W12       30.05F
TWIN FALLS     SUNNY     75  38  26 NW9       30.05F
$$

IDZ019>023-020100-
SOUTHEAST IDAHO


CITY           SKY/WX    TMP DP  RH WIND       PRES   REMARKS
IDAHO FALLS    SUNNY     74  35  24 SW18      30.06F
POCATELLO      SUNNY     73  37  27 W9G20     30.07F
REXBURG        SUNNY     69  34  27 S12       30.06F
$$

IDZ006-010-011-018-031-032-020100-
CENTRAL IDAHO MOUNTAINS


CITY           SKY/WX    TMP DP  RH WIND       PRES   REMARKS
MCCALL         SUNNY     68  32  26 NW10      30.08S
HAILEY         SUNNY     72  37  28 S13       30.07F
STANLEY          N/A     67  28  23 N10       30.12S
SALMON         SUNNY     72  39  30 NW5       29.96F
CHALLIS        SUNNY     75  27  17 CALM      30.00F
$$

IDZ002-004-006-007-026-020100-
NORTHERN IDAHO


CITY           SKY/WX    TMP DP  RH WIND       PRES   REMARKS
LEWISTON       SUNNY     79  42  26 N5        29.96F
LOWELL           N/A     71  47  42 CALM      29.95F
COEUR D`ALENE  MOSUNNY   72  37  28 SW10G20   29.97F
MULLAN PASS    PTSUNNY   51  37  58 SW8       30.10F
$$


USA.gov is the U.S. government's official web portal to all federal, state and local government web resources and services.